owner,sensor,date,latitude,longitude,vertical_datum,sea_water_temperature,qcFlag 
WAVCIS,ioos:station:WAVCIS:CSI16:2,2011-04-01T00:00:00Z,29.4012,-89.0355,10.0,22.238,11111222 
WAVCIS,ioos:station:WAVCIS:CSI16:2,2011-04-01T00:15:00Z,29.4012,-89.0355,10.0,22.234,11111222 
WAVCIS,ioos:station:WAVCIS:CSI16:2,2011-04-01T00:30:00Z,29.4012,-89.0355,10.0,22.235,11111222 
WAVCIS,ioos:station:WAVCIS:CSI16:2,2011-04-01T00:45:00Z,29.4012,-89.0355,10.0,22.24,11111222 
WAVCIS,ioos:station:WAVCIS:CSI16:2,2011-04-01T01:00:00Z,29.4012,-89.0355,10.0,22.246,11111222 
WAVCIS,ioos:station:WAVCIS:CSI16:2,2011-04-01T01:15:00Z,29.4012,-89.0355,10.0,22.252,11111222 
WAVCIS,ioos:station:WAVCIS:CSI16:2,2011-04-01T01:30:00Z,29.4012,-89.0355,10.0,22.269,11111222 
WAVCIS,ioos:station:WAVCIS:CSI16:2,2011-04-01T01:45:00Z,29.4012,-89.0355,10.0,22.27,11111222 
WAVCIS,ioos:station:WAVCIS:CSI16:2,2011-04-01T02:00:00Z,29.4012,-89.0355,10.0,22.252,11111222 
WAVCIS,ioos:station:WAVCIS:CSI16:2,2011-04-01T02:15:00Z,29.4012,-89.0355,10.0,22.257,11111222 
WAVCIS,ioos:station:WAVCIS:CSI16:2,2011-04-01T02:30:00Z,29.4012,-89.0355,10.0,22.224,11111222 
WAVCIS,ioos:station:WAVCIS:CSI16:2,2011-04-01T02:45:00Z,29.4012,-89.0355,10.0,22.213,11111222 
WAVCIS,ioos:station:WAVCIS:CSI16:2,2011-04-01T03:00:00Z,29.4012,-89.0355,10.0,22.211,11111222 
WAVCIS,ioos:station:WAVCIS:CSI16:2,2011-04-01T03:15:00Z,29.4012,-89.0355,10.0,22.219,11111222 
WAVCIS,ioos:station:WAVCIS:CSI16:2,2011-04-01T03:30:00Z,29.4012,-89.0355,10.0,22.233,11111222 
WAVCIS,ioos:station:WAVCIS:CSI16:2,2011-04-01T03:45:00Z,29.4012,-89.0355,10.0,22.239,11111222 
WAVCIS,ioos:station:WAVCIS:CSI16:2,2011-04-01T04:00:00Z,29.4012,-89.0355,10.0,22.228,11111222 
WAVCIS,ioos:station:WAVCIS:CSI16:2,2011-04-01T04:15:00Z,29.4012,-89.0355,10.0,22.228,11111222 
WAVCIS,ioos:station:WAVCIS:CSI16:2,2011-04-01T04:30:00Z,29.4012,-89.0355,10.0,22.23,11111222 
WAVCIS,ioos:station:WAVCIS:CSI16:2,2011-04-01T04:45:00Z,29.4012,-89.0355,10.0,22.226,11111222 
WAVCIS,ioos:station:WAVCIS:CSI16:2,2011-04-01T05:00:00Z,29.4012,-89.0355,10.0,22.222,11111222 
WAVCIS,ioos:station:WAVCIS:CSI16:2,2011-04-01T05:15:00Z,29.4012,-89.0355,10.0,22.219,11111222 
WAVCIS,ioos:station:WAVCIS:CSI16:2,2011-04-01T05:30:00Z,29.4012,-89.0355,10.0,22.211,11111222 
WAVCIS,ioos:station:WAVCIS:CSI16:2,2011-04-01T05:45:00Z,29.4012,-89.0355,10.0,22.216,11111222 
WAVCIS,ioos:station:WAVCIS:CSI16:2,2011-04-01T06:00:00Z,29.4012,-89.0355,10.0,22.224,11111222 
WAVCIS,ioos:station:WAVCIS:CSI16:2,2011-04-01T06:15:00Z,29.4012,-89.0355,10.0,22.219,11111222 
WAVCIS,ioos:station:WAVCIS:CSI16:2,2011-04-01T06:30:00Z,29.4012,-89.0355,10.0,22.223,11111222 
WAVCIS,ioos:station:WAVCIS:CSI16:2,2011-04-01T06:45:00Z,29.4012,-89.0355,10.0,22.232,11111222 
WAVCIS,ioos:station:WAVCIS:CSI16:2,2011-04-01T07:00:00Z,29.4012,-89.0355,10.0,22.229,11111222 
WAVCIS,ioos:station:WAVCIS:CSI16:2,2011-04-01T07:15:00Z,29.4012,-89.0355,10.0,22.239,11111222 
WAVCIS,ioos:station:WAVCIS:CSI16:2,2011-04-01T07:30:00Z,29.4012,-89.0355,10.0,22.261,11111222 
WAVCIS,ioos:station:WAVCIS:CSI16:2,2011-04-01T07:45:00Z,29.4012,-89.0355,10.0,22.285,11111222 
WAVCIS,ioos:station:WAVCIS:CSI16:2,2011-04-01T08:00:00Z,29.4012,-89.0355,10.0,22.301,11111222 
WAVCIS,ioos:station:WAVCIS:CSI16:2,2011-04-01T08:15:00Z,29.4012,-89.0355,10.0,22.287,11111222 
WAVCIS,ioos:station:WAVCIS:CSI16:2,2011-04-01T08:30:00Z,29.4012,-89.0355,10.0,22.251,11111222 
WAVCIS,ioos:station:WAVCIS:CSI16:2,2011-04-01T08:45:00Z,29.4012,-89.0355,10.0,22.124,11111222 
WAVCIS,ioos:station:WAVCIS:CSI16:2,2011-04-01T09:00:00Z,29.4012,-89.0355,10.0,22.217,11111222 
WAVCIS,ioos:station:WAVCIS:CSI16:2,2011-04-01T09:15:00Z,29.4012,-89.0355,10.0,22.239,11111222 
WAVCIS,ioos:station:WAVCIS:CSI16:2,2011-04-01T09:30:00Z,29.4012,-89.0355,10.0,22.247,11111222 
WAVCIS,ioos:station:WAVCIS:CSI16:2,2011-04-01T09:45:00Z,29.4012,-89.0355,10.0,22.263,11111222 
WAVCIS,ioos:station:WAVCIS:CSI16:2,2011-04-01T10:00:00Z,29.4012,-89.0355,10.0,22.222,11111222 
WAVCIS,ioos:station:WAVCIS:CSI16:2,2011-04-01T10:15:00Z,29.4012,-89.0355,10.0,22.174,11111222 
WAVCIS,ioos:station:WAVCIS:CSI16:2,2011-04-01T10:30:00Z,29.4012,-89.0355,10.0,22.205,11111222 
WAVCIS,ioos:station:WAVCIS:CSI16:2,2011-04-01T10:45:00Z,29.4012,-89.0355,10.0,22.233,11111222 
WAVCIS,ioos:station:WAVCIS:CSI16:2,2011-04-01T11:00:00Z,29.4012,-89.0355,10.0,22.296,11111222 
WAVCIS,ioos:station:WAVCIS:CSI16:2,2011-04-01T11:15:00Z,29.4012,-89.0355,10.0,22.342,11111222 
WAVCIS,ioos:station:WAVCIS:CSI16:2,2011-04-01T11:30:00Z,29.4012,-89.0355,10.0,22.382,11111222 
WAVCIS,ioos:station:WAVCIS:CSI16:2,2011-04-01T11:45:00Z,29.4012,-89.0355,10.0,22.404,11111222 
WAVCIS,ioos:station:WAVCIS:CSI16:2,2011-04-01T12:00:00Z,29.4012,-89.0355,10.0,22.36,11111222 
WAVCIS,ioos:station:WAVCIS:CSI16:2,2011-04-01T12:15:00Z,29.4012,-89.0355,10.0,22.342,11111222 
WAVCIS,ioos:station:WAVCIS:CSI16:2,2011-04-01T12:30:00Z,29.4012,-89.0355,10.0,22.329,11111222 
WAVCIS,ioos:station:WAVCIS:CSI16:2,2011-04-01T12:45:00Z,29.4012,-89.0355,10.0,22.305,11111222 
WAVCIS,ioos:station:WAVCIS:CSI16:2,2011-04-01T13:00:00Z,29.4012,-89.0355,10.0,22.329,11111222 
WAVCIS,ioos:station:WAVCIS:CSI16:2,2011-04-01T13:15:00Z,29.4012,-89.0355,10.0,22.363,11111222 
WAVCIS,ioos:station:WAVCIS:CSI16:2,2011-04-01T13:30:00Z,29.4012,-89.0355,10.0,22.341,11111222 
WAVCIS,ioos:station:WAVCIS:CSI16:2,2011-04-01T13:45:00Z,29.4012,-89.0355,10.0,22.301,11111222 
WAVCIS,ioos:station:WAVCIS:CSI16:2,2011-04-01T14:00:00Z,29.4012,-89.0355,10.0,22.297,11111222 
WAVCIS,ioos:station:WAVCIS:CSI16:2,2011-04-01T14:15:00Z,29.4012,-89.0355,10.0,22.304,11111222 
WAVCIS,ioos:station:WAVCIS:CSI16:2,2011-04-01T14:30:00Z,29.4012,-89.0355,10.0,22.329,11111222 
WAVCIS,ioos:station:WAVCIS:CSI16:2,2011-04-01T14:45:00Z,29.4012,-89.0355,10.0,22.292,11111222 
WAVCIS,ioos:station:WAVCIS:CSI16:2,2011-04-01T15:00:00Z,29.4012,-89.0355,10.0,22.304,11111222 
WAVCIS,ioos:station:WAVCIS:CSI16:2,2011-04-01T15:15:00Z,29.4012,-89.0355,10.0,22.298,11111222 
WAVCIS,ioos:station:WAVCIS:CSI16:2,2011-04-01T15:30:00Z,29.4012,-89.0355,10.0,22.323,11111222 
WAVCIS,ioos:station:WAVCIS:CSI16:2,2011-04-01T15:45:00Z,29.4012,-89.0355,10.0,22.199,11111222 
WAVCIS,ioos:station:WAVCIS:CSI16:2,2011-04-01T16:00:00Z,29.4012,-89.0355,10.0,22.348,11111222 
WAVCIS,ioos:station:WAVCIS:CSI16:2,2011-04-01T16:15:00Z,29.4012,-89.0355,10.0,22.316,11111222 
WAVCIS,ioos:station:WAVCIS:CSI16:2,2011-04-01T16:30:00Z,29.4012,-89.0355,10.0,22.32,11111222 
WAVCIS,ioos:station:WAVCIS:CSI16:2,2011-04-01T16:45:00Z,29.4012,-89.0355,10.0,22.325,11111222 
WAVCIS,ioos:station:WAVCIS:CSI16:2,2011-04-01T17:00:00Z,29.4012,-89.0355,10.0,22.313,11111222 
WAVCIS,ioos:station:WAVCIS:CSI16:2,2011-04-01T17:15:00Z,29.4012,-89.0355,10.0,22.337,11111222 
WAVCIS,ioos:station:WAVCIS:CSI16:2,2011-04-01T17:30:00Z,29.4012,-89.0355,10.0,22.346,11111222 
WAVCIS,ioos:station:WAVCIS:CSI16:2,2011-04-01T17:45:00Z,29.4012,-89.0355,10.0,22.34,11111222 
WAVCIS,ioos:station:WAVCIS:CSI16:2,2011-04-01T18:00:00Z,29.4012,-89.0355,10.0,22.33,11111222 
WAVCIS,ioos:station:WAVCIS:CSI16:2,2011-04-01T18:15:00Z,29.4012,-89.0355,10.0,22.318,11111222 
WAVCIS,ioos:station:WAVCIS:CSI16:2,2011-04-01T18:30:00Z,29.4012,-89.0355,10.0,22.302,11111222 
WAVCIS,ioos:station:WAVCIS:CSI16:2,2011-04-01T18:45:00Z,29.4012,-89.0355,10.0,22.309,11111222 
WAVCIS,ioos:station:WAVCIS:CSI16:2,2011-04-01T19:00:00Z,29.4012,-89.0355,10.0,22.31,11111222 
WAVCIS,ioos:station:WAVCIS:CSI16:2,2011-04-01T19:15:00Z,29.4012,-89.0355,10.0,22.232,11111222 
WAVCIS,ioos:station:WAVCIS:CSI16:2,2011-04-01T19:30:00Z,29.4012,-89.0355,10.0,22.294,11111222 
WAVCIS,ioos:station:WAVCIS:CSI16:2,2011-04-01T19:45:00Z,29.4012,-89.0355,10.0,22.269,11111222 
WAVCIS,ioos:station:WAVCIS:CSI16:2,2011-04-01T20:00:00Z,29.4012,-89.0355,10.0,22.266,11111222 
WAVCIS,ioos:station:WAVCIS:CSI16:2,2011-04-01T20:15:00Z,29.4012,-89.0355,10.0,22.296,11111222 
WAVCIS,ioos:station:WAVCIS:CSI16:2,2011-04-01T20:30:00Z,29.4012,-89.0355,10.0,22.184,11111222 
WAVCIS,ioos:station:WAVCIS:CSI16:2,2011-04-01T20:45:00Z,29.4012,-89.0355,10.0,22.158,11111222 
WAVCIS,ioos:station:WAVCIS:CSI16:2,2011-04-01T21:00:00Z,29.4012,-89.0355,10.0,22.142,11111222 
WAVCIS,ioos:station:WAVCIS:CSI16:2,2011-04-01T21:15:00Z,29.4012,-89.0355,10.0,22.124,11111222 
WAVCIS,ioos:station:WAVCIS:CSI16:2,2011-04-01T21:30:00Z,29.4012,-89.0355,10.0,22.1,11111222 
WAVCIS,ioos:station:WAVCIS:CSI16:2,2011-04-01T21:45:00Z,29.4012,-89.0355,10.0,22.077,11111222 
WAVCIS,ioos:station:WAVCIS:CSI16:2,2011-04-01T22:00:00Z,29.4012,-89.0355,10.0,22.061,11111222 
WAVCIS,ioos:station:WAVCIS:CSI16:2,2011-04-01T22:15:00Z,29.4012,-89.0355,10.0,22.044,11111222 
WAVCIS,ioos:station:WAVCIS:CSI16:2,2011-04-01T22:30:00Z,29.4012,-89.0355,10.0,22.024,11111222 
WAVCIS,ioos:station:WAVCIS:CSI16:2,2011-04-01T22:45:00Z,29.4012,-89.0355,10.0,21.995,11111222 
WAVCIS,ioos:station:WAVCIS:CSI16:2,2011-04-01T23:00:00Z,29.4012,-89.0355,10.0,21.984,11111222 
WAVCIS,ioos:station:WAVCIS:CSI16:2,2011-04-01T23:15:00Z,29.4012,-89.0355,10.0,21.954,11111222 
WAVCIS,ioos:station:WAVCIS:CSI16:2,2011-04-01T23:30:00Z,29.4012,-89.0355,10.0,21.969,11111222 
WAVCIS,ioos:station:WAVCIS:CSI16:2,2011-04-01T23:45:00Z,29.4012,-89.0355,10.0,21.96,11111222 
WAVCIS,ioos:station:WAVCIS:CSI16:2,2011-04-02T00:00:00Z,29.4012,-89.0355,10.0,21.935,11111222 
WAVCIS,ioos:station:WAVCIS:CSI16:2,2011-04-02T00:15:00Z,29.4012,-89.0355,10.0,21.906,11111222 
WAVCIS,ioos:station:WAVCIS:CSI16:2,2011-04-02T00:30:00Z,29.4012,-89.0355,10.0,21.894,11111222 
WAVCIS,ioos:station:WAVCIS:CSI16:2,2011-04-02T00:45:00Z,29.4012,-89.0355,10.0,21.887,11111222 
WAVCIS,ioos:station:WAVCIS:CSI16:2,2011-04-02T01:00:00Z,29.4012,-89.0355,10.0,21.875,11111222 
WAVCIS,ioos:station:WAVCIS:CSI16:2,2011-04-02T01:15:00Z,29.4012,-89.0355,10.0,21.866,11111222 
WAVCIS,ioos:station:WAVCIS:CSI16:2,2011-04-02T01:30:00Z,29.4012,-89.0355,10.0,21.837,11111222 
WAVCIS,ioos:station:WAVCIS:CSI16:2,2011-04-02T01:45:00Z,29.4012,-89.0355,10.0,21.85,11111222 
WAVCIS,ioos:station:WAVCIS:CSI16:2,2011-04-02T02:00:00Z,29.4012,-89.0355,10.0,21.587,11111222 
WAVCIS,ioos:station:WAVCIS:CSI16:2,2011-04-02T02:15:00Z,29.4012,-89.0355,10.0,21.648,11111222 
WAVCIS,ioos:station:WAVCIS:CSI16:2,2011-04-02T02:30:00Z,29.4012,-89.0355,10.0,21.574,11111222 
WAVCIS,ioos:station:WAVCIS:CSI16:2,2011-04-02T02:45:00Z,29.4012,-89.0355,10.0,21.234,11111222 
WAVCIS,ioos:station:WAVCIS:CSI16:2,2011-04-02T03:00:00Z,29.4012,-89.0355,10.0,21.607,11111222 
WAVCIS,ioos:station:WAVCIS:CSI16:2,2011-04-02T03:15:00Z,29.4012,-89.0355,10.0,20.805,11111222 
WAVCIS,ioos:station:WAVCIS:CSI16:2,2011-04-02T03:30:00Z,29.4012,-89.0355,10.0,21.208,11111222 
WAVCIS,ioos:station:WAVCIS:CSI16:2,2011-04-02T03:45:00Z,29.4012,-89.0355,10.0,21.286,11111222 
WAVCIS,ioos:station:WAVCIS:CSI16:2,2011-04-02T04:00:00Z,29.4012,-89.0355,10.0,21.476,11111222 
WAVCIS,ioos:station:WAVCIS:CSI16:2,2011-04-02T04:15:00Z,29.4012,-89.0355,10.0,21.87,11111222 
WAVCIS,ioos:station:WAVCIS:CSI16:2,2011-04-02T04:30:00Z,29.4012,-89.0355,10.0,21.754,11111222 
WAVCIS,ioos:station:WAVCIS:CSI16:2,2011-04-02T04:45:00Z,29.4012,-89.0355,10.0,21.979,11111222 
WAVCIS,ioos:station:WAVCIS:CSI16:2,2011-04-02T05:00:00Z,29.4012,-89.0355,10.0,21.127,11111222 
WAVCIS,ioos:station:WAVCIS:CSI16:2,2011-04-02T05:15:00Z,29.4012,-89.0355,10.0,21.121,11111222 
WAVCIS,ioos:station:WAVCIS:CSI16:2,2011-04-02T05:30:00Z,29.4012,-89.0355,10.0,20.65,11111222 
WAVCIS,ioos:station:WAVCIS:CSI16:2,2011-04-02T05:45:00Z,29.4012,-89.0355,10.0,20.097,11111222 
WAVCIS,ioos:station:WAVCIS:CSI16:2,2011-04-02T06:00:00Z,29.4012,-89.0355,10.0,20.93,11111222 
WAVCIS,ioos:station:WAVCIS:CSI16:2,2011-04-02T06:15:00Z,29.4012,-89.0355,10.0,20.109,11111222 
WAVCIS,ioos:station:WAVCIS:CSI16:2,2011-04-02T06:30:00Z,29.4012,-89.0355,10.0,20.156,11111222 
WAVCIS,ioos:station:WAVCIS:CSI16:2,2011-04-02T06:45:00Z,29.4012,-89.0355,10.0,20.462,11111222 
WAVCIS,ioos:station:WAVCIS:CSI16:2,2011-04-02T07:00:00Z,29.4012,-89.0355,10.0,20.483,11111222 
WAVCIS,ioos:station:WAVCIS:CSI16:2,2011-04-02T07:15:00Z,29.4012,-89.0355,10.0,20.319,11111222 
WAVCIS,ioos:station:WAVCIS:CSI16:2,2011-04-02T07:30:00Z,29.4012,-89.0355,10.0,20.407,11111222 
WAVCIS,ioos:station:WAVCIS:CSI16:2,2011-04-02T07:45:00Z,29.4012,-89.0355,10.0,20.235,11111222 
WAVCIS,ioos:station:WAVCIS:CSI16:2,2011-04-02T08:00:00Z,29.4012,-89.0355,10.0,20.578,11111222 
WAVCIS,ioos:station:WAVCIS:CSI16:2,2011-04-02T08:15:00Z,29.4012,-89.0355,10.0,20.703,11111222 
WAVCIS,ioos:station:WAVCIS:CSI16:2,2011-04-02T08:30:00Z,29.4012,-89.0355,10.0,20.484,11111222 
WAVCIS,ioos:station:WAVCIS:CSI16:2,2011-04-02T08:45:00Z,29.4012,-89.0355,10.0,20.735,11111222 
WAVCIS,ioos:station:WAVCIS:CSI16:2,2011-04-02T09:00:00Z,29.4012,-89.0355,10.0,20.496,11111222 
WAVCIS,ioos:station:WAVCIS:CSI16:2,2011-04-02T09:15:00Z,29.4012,-89.0355,10.0,20.997,11111222 
WAVCIS,ioos:station:WAVCIS:CSI16:2,2011-04-02T09:30:00Z,29.4012,-89.0355,10.0,21.177,11111222 
WAVCIS,ioos:station:WAVCIS:CSI16:2,2011-04-02T09:45:00Z,29.4012,-89.0355,10.0,21.696,11111222 
WAVCIS,ioos:station:WAVCIS:CSI16:2,2011-04-02T10:00:00Z,29.4012,-89.0355,10.0,21.716,11111222 
WAVCIS,ioos:station:WAVCIS:CSI16:2,2011-04-02T10:15:00Z,29.4012,-89.0355,10.0,20.706,11111222 
WAVCIS,ioos:station:WAVCIS:CSI16:2,2011-04-02T10:30:00Z,29.4012,-89.0355,10.0,20.339,11111222 
WAVCIS,ioos:station:WAVCIS:CSI16:2,2011-04-02T10:45:00Z,29.4012,-89.0355,10.0,20.401,11111222 
WAVCIS,ioos:station:WAVCIS:CSI16:2,2011-04-02T11:00:00Z,29.4012,-89.0355,10.0,20.249,11111222 
WAVCIS,ioos:station:WAVCIS:CSI16:2,2011-04-02T11:15:00Z,29.4012,-89.0355,10.0,20.175,11111222 
WAVCIS,ioos:station:WAVCIS:CSI16:2,2011-04-02T11:30:00Z,29.4012,-89.0355,10.0,20.028,11111222 
WAVCIS,ioos:station:WAVCIS:CSI16:2,2011-04-02T11:45:00Z,29.4012,-89.0355,10.0,19.852,11111222 
WAVCIS,ioos:station:WAVCIS:CSI16:2,2011-04-02T12:00:00Z,29.4012,-89.0355,10.0,20.01,11111222 
WAVCIS,ioos:station:WAVCIS:CSI16:2,2011-04-02T12:15:00Z,29.4012,-89.0355,10.0,19.909,11111222 
WAVCIS,ioos:station:WAVCIS:CSI16:2,2011-04-02T12:30:00Z,29.4012,-89.0355,10.0,19.788,11111222 
WAVCIS,ioos:station:WAVCIS:CSI16:2,2011-04-02T12:45:00Z,29.4012,-89.0355,10.0,19.837,11111222 
WAVCIS,ioos:station:WAVCIS:CSI16:2,2011-04-02T13:00:00Z,29.4012,-89.0355,10.0,19.634,11111222 
WAVCIS,ioos:station:WAVCIS:CSI16:2,2011-04-02T13:15:00Z,29.4012,-89.0355,10.0,19.647,11111222 
WAVCIS,ioos:station:WAVCIS:CSI16:2,2011-04-02T13:30:00Z,29.4012,-89.0355,10.0,19.626,11111222 
WAVCIS,ioos:station:WAVCIS:CSI16:2,2011-04-02T13:45:00Z,29.4012,-89.0355,10.0,19.623,11111222 
WAVCIS,ioos:station:WAVCIS:CSI16:2,2011-04-02T14:00:00Z,29.4012,-89.0355,10.0,19.592,11111222 
WAVCIS,ioos:station:WAVCIS:CSI16:2,2011-04-02T14:15:00Z,29.4012,-89.0355,10.0,19.599,11111222 
WAVCIS,ioos:station:WAVCIS:CSI16:2,2011-04-02T14:30:00Z,29.4012,-89.0355,10.0,19.559,11111222 
WAVCIS,ioos:station:WAVCIS:CSI16:2,2011-04-02T14:45:00Z,29.4012,-89.0355,10.0,19.608,11111222 
WAVCIS,ioos:station:WAVCIS:CSI16:2,2011-04-02T15:00:00Z,29.4012,-89.0355,10.0,19.571,11111222 
WAVCIS,ioos:station:WAVCIS:CSI16:2,2011-04-02T15:15:00Z,29.4012,-89.0355,10.0,19.566,11111222 
WAVCIS,ioos:station:WAVCIS:CSI16:2,2011-04-02T15:30:00Z,29.4012,-89.0355,10.0,19.527,11111222 
WAVCIS,ioos:station:WAVCIS:CSI16:2,2011-04-02T15:45:00Z,29.4012,-89.0355,10.0,19.496,11111222 
WAVCIS,ioos:station:WAVCIS:CSI16:2,2011-04-02T16:00:00Z,29.4012,-89.0355,10.0,19.474,11111222 
WAVCIS,ioos:station:WAVCIS:CSI16:2,2011-04-02T16:15:00Z,29.4012,-89.0355,10.0,19.462,11111222 
WAVCIS,ioos:station:WAVCIS:CSI16:2,2011-04-02T16:30:00Z,29.4012,-89.0355,10.0,19.454,11111222 
WAVCIS,ioos:station:WAVCIS:CSI16:2,2011-04-02T16:45:00Z,29.4012,-89.0355,10.0,19.445,11111222 
WAVCIS,ioos:station:WAVCIS:CSI16:2,2011-04-02T17:00:00Z,29.4012,-89.0355,10.0,19.448,11111222 
WAVCIS,ioos:station:WAVCIS:CSI16:2,2011-04-02T17:15:00Z,29.4012,-89.0355,10.0,19.43,11111222 
WAVCIS,ioos:station:WAVCIS:CSI16:2,2011-04-02T17:30:00Z,29.4012,-89.0355,10.0,19.428,11111222 
WAVCIS,ioos:station:WAVCIS:CSI16:2,2011-04-02T17:45:00Z,29.4012,-89.0355,10.0,19.42,11111222 
WAVCIS,ioos:station:WAVCIS:CSI16:2,2011-04-02T18:00:00Z,29.4012,-89.0355,10.0,19.483,11111222 
WAVCIS,ioos:station:WAVCIS:CSI16:2,2011-04-02T18:15:00Z,29.4012,-89.0355,10.0,19.494,11111222 
WAVCIS,ioos:station:WAVCIS:CSI16:2,2011-04-02T18:30:00Z,29.4012,-89.0355,10.0,19.564,11111222 
WAVCIS,ioos:station:WAVCIS:CSI16:2,2011-04-02T18:45:00Z,29.4012,-89.0355,10.0,19.642,11111222 
WAVCIS,ioos:station:WAVCIS:CSI16:2,2011-04-02T19:00:00Z,29.4012,-89.0355,10.0,19.609,11111222 
WAVCIS,ioos:station:WAVCIS:CSI16:2,2011-04-02T19:15:00Z,29.4012,-89.0355,10.0,19.584,11111222 
WAVCIS,ioos:station:WAVCIS:CSI16:2,2011-04-02T19:30:00Z,29.4012,-89.0355,10.0,19.718,11111222 
WAVCIS,ioos:station:WAVCIS:CSI16:2,2011-04-02T19:45:00Z,29.4012,-89.0355,10.0,19.656,11111222 
WAVCIS,ioos:station:WAVCIS:CSI16:2,2011-04-02T20:00:00Z,29.4012,-89.0355,10.0,19.994,11111222 
WAVCIS,ioos:station:WAVCIS:CSI16:2,2011-04-02T20:15:00Z,29.4012,-89.0355,10.0,20.043,11111222 
WAVCIS,ioos:station:WAVCIS:CSI16:2,2011-04-02T20:30:00Z,29.4012,-89.0355,10.0,19.923,11111222 
WAVCIS,ioos:station:WAVCIS:CSI16:2,2011-04-02T20:45:00Z,29.4012,-89.0355,10.0,20.012,11111222 
WAVCIS,ioos:station:WAVCIS:CSI16:2,2011-04-02T21:00:00Z,29.4012,-89.0355,10.0,19.696,11111222 
WAVCIS,ioos:station:WAVCIS:CSI16:2,2011-04-02T21:15:00Z,29.4012,-89.0355,10.0,19.869,11111222 
WAVCIS,ioos:station:WAVCIS:CSI16:2,2011-04-02T21:30:00Z,29.4012,-89.0355,10.0,19.772,11111222 
WAVCIS,ioos:station:WAVCIS:CSI16:2,2011-04-02T21:45:00Z,29.4012,-89.0355,10.0,19.79,11111222 
WAVCIS,ioos:station:WAVCIS:CSI16:2,2011-04-02T22:00:00Z,29.4012,-89.0355,10.0,19.871,11111222 
WAVCIS,ioos:station:WAVCIS:CSI16:2,2011-04-02T22:15:00Z,29.4012,-89.0355,10.0,19.728,11111222 
WAVCIS,ioos:station:WAVCIS:CSI16:2,2011-04-02T22:30:00Z,29.4012,-89.0355,10.0,20.063,11111222 
WAVCIS,ioos:station:WAVCIS:CSI16:2,2011-04-02T22:45:00Z,29.4012,-89.0355,10.0,19.826,11111222 
WAVCIS,ioos:station:WAVCIS:CSI16:2,2011-04-02T23:00:00Z,29.4012,-89.0355,10.0,19.97,11111222 
WAVCIS,ioos:station:WAVCIS:CSI16:2,2011-04-02T23:15:00Z,29.4012,-89.0355,10.0,19.601,11111222 
WAVCIS,ioos:station:WAVCIS:CSI16:2,2011-04-02T23:30:00Z,29.4012,-89.0355,10.0,19.476,11111222 
WAVCIS,ioos:station:WAVCIS:CSI16:2,2011-04-02T23:45:00Z,29.4012,-89.0355,10.0,19.436,11111222 
WAVCIS,ioos:station:WAVCIS:CSI16:2,2011-04-03T00:00:00Z,29.4012,-89.0355,10.0,19.434,11111222 
WAVCIS,ioos:station:WAVCIS:CSI16:2,2011-04-03T00:15:00Z,29.4012,-89.0355,10.0,19.4,11111222 
WAVCIS,ioos:station:WAVCIS:CSI16:2,2011-04-03T00:30:00Z,29.4012,-89.0355,10.0,19.371,11111222 
WAVCIS,ioos:station:WAVCIS:CSI16:2,2011-04-03T00:45:00Z,29.4012,-89.0355,10.0,19.344,11111222 
WAVCIS,ioos:station:WAVCIS:CSI16:2,2011-04-03T01:00:00Z,29.4012,-89.0355,10.0,19.331,11111222 
WAVCIS,ioos:station:WAVCIS:CSI16:2,2011-04-03T01:15:00Z,29.4012,-89.0355,10.0,19.3,11111222 
WAVCIS,ioos:station:WAVCIS:CSI16:2,2011-04-03T01:30:00Z,29.4012,-89.0355,10.0,19.29,11111222 
WAVCIS,ioos:station:WAVCIS:CSI16:2,2011-04-03T01:45:00Z,29.4012,-89.0355,10.0,19.263,11111222 
WAVCIS,ioos:station:WAVCIS:CSI16:2,2011-04-03T02:00:00Z,29.4012,-89.0355,10.0,19.246,11111222 
WAVCIS,ioos:station:WAVCIS:CSI16:2,2011-04-03T02:15:00Z,29.4012,-89.0355,10.0,19.227,11111222 
WAVCIS,ioos:station:WAVCIS:CSI16:2,2011-04-03T02:30:00Z,29.4012,-89.0355,10.0,19.207,11111222 
WAVCIS,ioos:station:WAVCIS:CSI16:2,2011-04-03T02:45:00Z,29.4012,-89.0355,10.0,19.182,11111222 
WAVCIS,ioos:station:WAVCIS:CSI16:2,2011-04-03T03:00:00Z,29.4012,-89.0355,10.0,19.167,11111222 
WAVCIS,ioos:station:WAVCIS:CSI16:2,2011-04-03T03:15:00Z,29.4012,-89.0355,10.0,19.15,11111222 
WAVCIS,ioos:station:WAVCIS:CSI16:2,2011-04-03T03:30:00Z,29.4012,-89.0355,10.0,19.142,11111222 
WAVCIS,ioos:station:WAVCIS:CSI16:2,2011-04-03T03:45:00Z,29.4012,-89.0355,10.0,19.127,11111222 
WAVCIS,ioos:station:WAVCIS:CSI16:2,2011-04-03T04:00:00Z,29.4012,-89.0355,10.0,19.104,11111222 
WAVCIS,ioos:station:WAVCIS:CSI16:2,2011-04-03T04:15:00Z,29.4012,-89.0355,10.0,19.093,11111222 
WAVCIS,ioos:station:WAVCIS:CSI16:2,2011-04-03T04:30:00Z,29.4012,-89.0355,10.0,19.075,11111222 
WAVCIS,ioos:station:WAVCIS:CSI16:2,2011-04-03T04:45:00Z,29.4012,-89.0355,10.0,19.065,11111222 
WAVCIS,ioos:station:WAVCIS:CSI16:2,2011-04-03T05:00:00Z,29.4012,-89.0355,10.0,19.053,11111222 
WAVCIS,ioos:station:WAVCIS:CSI16:2,2011-04-03T05:15:00Z,29.4012,-89.0355,10.0,19.044,11111222 
WAVCIS,ioos:station:WAVCIS:CSI16:2,2011-04-03T05:30:00Z,29.4012,-89.0355,10.0,19.028,11111222 
WAVCIS,ioos:station:WAVCIS:CSI16:2,2011-04-03T05:45:00Z,29.4012,-89.0355,10.0,19.025,11111222 
WAVCIS,ioos:station:WAVCIS:CSI16:2,2011-04-03T06:00:00Z,29.4012,-89.0355,10.0,19.016,11111222 
WAVCIS,ioos:station:WAVCIS:CSI16:2,2011-04-03T06:15:00Z,29.4012,-89.0355,10.0,19.004,11111222 
WAVCIS,ioos:station:WAVCIS:CSI16:2,2011-04-03T06:30:00Z,29.4012,-89.0355,10.0,18.997,11111222 
WAVCIS,ioos:station:WAVCIS:CSI16:2,2011-04-03T06:45:00Z,29.4012,-89.0355,10.0,18.99,11111222 
WAVCIS,ioos:station:WAVCIS:CSI16:2,2011-04-03T07:00:00Z,29.4012,-89.0355,10.0,18.986,11111222 
WAVCIS,ioos:station:WAVCIS:CSI16:2,2011-04-03T07:15:00Z,29.4012,-89.0355,10.0,18.987,11111222 
WAVCIS,ioos:station:WAVCIS:CSI16:2,2011-04-03T07:30:00Z,29.4012,-89.0355,10.0,18.987,11111222 
WAVCIS,ioos:station:WAVCIS:CSI16:2,2011-04-03T07:45:00Z,29.4012,-89.0355,10.0,18.986,11111222 
WAVCIS,ioos:station:WAVCIS:CSI16:2,2011-04-03T08:00:00Z,29.4012,-89.0355,10.0,18.989,11111222 
WAVCIS,ioos:station:WAVCIS:CSI16:2,2011-04-03T08:15:00Z,29.4012,-89.0355,10.0,18.991,11111222 
WAVCIS,ioos:station:WAVCIS:CSI16:2,2011-04-03T08:30:00Z,29.4012,-89.0355,10.0,18.991,11111222 
WAVCIS,ioos:station:WAVCIS:CSI16:2,2011-04-03T08:45:00Z,29.4012,-89.0355,10.0,18.991,11111222 
WAVCIS,ioos:station:WAVCIS:CSI16:2,2011-04-03T09:00:00Z,29.4012,-89.0355,10.0,18.993,11111222 
WAVCIS,ioos:station:WAVCIS:CSI16:2,2011-04-03T09:15:00Z,29.4012,-89.0355,10.0,18.995,11111222 
WAVCIS,ioos:station:WAVCIS:CSI16:2,2011-04-03T09:30:00Z,29.4012,-89.0355,10.0,18.998,11111222 
WAVCIS,ioos:station:WAVCIS:CSI16:2,2011-04-03T09:45:00Z,29.4012,-89.0355,10.0,18.997,11111222 
WAVCIS,ioos:station:WAVCIS:CSI16:2,2011-04-03T10:00:00Z,29.4012,-89.0355,10.0,18.999,11111222 
WAVCIS,ioos:station:WAVCIS:CSI16:2,2011-04-03T10:15:00Z,29.4012,-89.0355,10.0,19.002,11111222 
WAVCIS,ioos:station:WAVCIS:CSI16:2,2011-04-03T10:30:00Z,29.4012,-89.0355,10.0,19.003,11111222 
WAVCIS,ioos:station:WAVCIS:CSI16:2,2011-04-03T10:45:00Z,29.4012,-89.0355,10.0,19.006,11111222 
WAVCIS,ioos:station:WAVCIS:CSI16:2,2011-04-03T11:00:00Z,29.4012,-89.0355,10.0,19.007,11111222 
WAVCIS,ioos:station:WAVCIS:CSI16:2,2011-04-03T11:15:00Z,29.4012,-89.0355,10.0,19.001,11111222 
WAVCIS,ioos:station:WAVCIS:CSI16:2,2011-04-03T11:30:00Z,29.4012,-89.0355,10.0,18.998,11111222 
WAVCIS,ioos:station:WAVCIS:CSI16:2,2011-04-03T11:45:00Z,29.4012,-89.0355,10.0,18.993,11111222 
WAVCIS,ioos:station:WAVCIS:CSI16:2,2011-04-03T12:00:00Z,29.4012,-89.0355,10.0,18.981,11111222 
WAVCIS,ioos:station:WAVCIS:CSI16:2,2011-04-03T12:15:00Z,29.4012,-89.0355,10.0,18.953,11111222 
WAVCIS,ioos:station:WAVCIS:CSI16:2,2011-04-03T12:30:00Z,29.4012,-89.0355,10.0,18.938,11111222 
WAVCIS,ioos:station:WAVCIS:CSI16:2,2011-04-03T12:45:00Z,29.4012,-89.0355,10.0,18.923,11111222 
WAVCIS,ioos:station:WAVCIS:CSI16:2,2011-04-03T13:00:00Z,29.4012,-89.0355,10.0,18.899,11111222 
WAVCIS,ioos:station:WAVCIS:CSI16:2,2011-04-03T13:15:00Z,29.4012,-89.0355,10.0,18.881,11111222 
WAVCIS,ioos:station:WAVCIS:CSI16:2,2011-04-03T13:30:00Z,29.4012,-89.0355,10.0,18.868,11111222 
WAVCIS,ioos:station:WAVCIS:CSI16:2,2011-04-03T13:45:00Z,29.4012,-89.0355,10.0,18.831,11111222 
WAVCIS,ioos:station:WAVCIS:CSI16:2,2011-04-03T14:00:00Z,29.4012,-89.0355,10.0,18.818,11111222 
WAVCIS,ioos:station:WAVCIS:CSI16:2,2011-04-03T14:15:00Z,29.4012,-89.0355,10.0,18.792,11111222 
WAVCIS,ioos:station:WAVCIS:CSI16:2,2011-04-03T14:30:00Z,29.4012,-89.0355,10.0,18.766,11111222 
WAVCIS,ioos:station:WAVCIS:CSI16:2,2011-04-03T14:45:00Z,29.4012,-89.0355,10.0,18.749,11111222 